Jackpot

Texas Poker Multi Jackpot System

Kini Telah hadir Jackpot SUPER ROYAL FLUSH

Kini Telah hadir Jackpot 2000 (khusus table VIP keatas).

Ikutilah global jackpot yang tersedia di system kami, dengan system jackpot terbaru dan pertama di indonesia, anda dapat membeli jackpot dengan harga 100 rupiah saja dan menangkan hadiahnya hingga puluhan juta rupiah.

Jackpot bukanlah suatu keharusan untuk dibeli, namun kami memberikan suatu fitur tambahan untuk member tercinta dari www.pokerbintang.net.

Terdapat tiga pilihan harga jackpot yang bisa anda beli yaitu :100,500,1000 dan 2000(khusus table VIP Keatas) rupiah.

Hadiah dari Multi jackpot system www.pokerbintang.net

  1. full house x 10 harga jackpot yang anda beli.
      (contoh:anda membeli 1000 maka:1000 X10 = 10.000)
  2. four of kind x 250 harga jackpot yang anda beli
      (contoh:anda membeli 1000 maka:1000 X250 = 250.000)
  3. Straight flush x 1200
      (contoh:anda membeli 1000 maka:1000 X1200 = 1.200.000)
  4. Royal flush x 10000 harga jackpot yang anda beli
      (contoh:anda membeli 1000 maka:1000 X10000 = 10.000.000)
  5. SUPER ROYAL FLUSH x 30000 harga jackpot yang anda beli
      (contoh:anda membeli 1000 maka:1000 X30000 = 30.000.000)

Kondisi kartu

  1. full house adalah kondisi kartu dimana kartu anda dan kartu tengah dengan total 7 kartu bisa mendapatkan nilai 5 kartu dengan kombinasi 1 tris(three of kind) dan 1 pair, contoh 3 kartu 10 dan 2 kartu 5
  2. Four of kind adalah kondisi kartu dimana kartu anda dan kartu tengah dengan total 7 kartu bisa mendapatkan nilai 5 kartu dengan kombinasi 4 kartu yang sama jumlah dan 1 kartu apapun juga contoh anda mendapatkan 4 buah kartu angka 3 dan 1 kartu apapun.
  3. Staright flush adalah kondisi kartu dimana kartu anda dan kartu tengah dengan total 7 kartu bisa mendapatkan nilai 5 kartu dengan kombinasi seri / staright dengan kembang yang sama contoh : urutan kartu dari angka 5, 6, 7, 8 , 9 10 dengan kembang yg sama misalnya as hati
  4. Royal flush adalah kondisi kartu dimana kartu anda dan kartu tengah dengan total 7 kartu bisa mendapatkan nilai 5 kartu dengan kombinasi seri / staright dengan kembang yang sama tetapi kartu tersebut haruslah dimulai dari 10. contoh 10, Queen, Jack, King dan aces dengan kembang yang sama
  5. Super Royal flush adalah kondisi kartu dimana Kedua kartu anda digabung dengan 3 kartu pertama meja haruslah royal flush. contoh kartu anda 10,Queen kembang sama dan 3 kartu pertama meja adalah Jack, King dan aces dengan kembang yang sama

Demikian adalah penjelasan dari Multi Jackpot www.pokerbintang.net terima kasih dan selamat bermain salam hoki dari kami

Texas Poker Jackpot Winner

TOP SUPER ROYAL FLUSH
No.TanggalNamaPriceWin
127/05 12:13DILAN00Super Royal flush6,000,000
227/05 11:55BUNGASERAISuper Royal flush15,000,000
327/05 10:07DONO90Super Royal flush15,000,000
427/05 09:46TC622NGLYTSuper Royal flush30,000,000
526/05 18:59GACO777Super Royal flush15,000,000
TOP ROYAL FLUSH
No.TanggalNamaPriceWin
127/05 12:51JURONG35Royal flush5,000,000
227/05 12:49MAKMUN28Royal flush20,000,000
327/05 12:42HEBI99Royal flush2,000,000
427/05 12:13PALGUN4Royal flush5,000,000
527/05 11:58CENGEK_9Royal flush5,000,000
TOP STRAIGHT FLUSH
No.TanggalNamaPriceWin
127/05 13:07KS4TR14Straight Flush600,000
227/05 13:06ENGTIWAStraight Flush240,000
327/05 13:05HAFIZAH88Straight Flush600,000
427/05 13:05SIITRIGIG_Straight Flush120,000
527/05 13:03NEWB13Straight Flush600,000
LATEST JACKPOT
No.TanggalNamaPriceWin
127/05 13:13FABR4QR05RFull House10,000
227/05 13:13MARBONE99Full House5,000
327/05 13:13A805KUFull House10,000
427/05 13:13OPS_AMOLEFour Of A Kind250,000
527/05 13:13JAN2017Full House10,000
627/05 13:13BISNFull House10,000
727/05 13:13WYSCFull House1,000
827/05 13:13CAR288Full House5,000
927/05 13:13CIMUY420Full House2,000
1027/05 13:13KAKES123Full House2,000
1127/05 13:13MJKIFull House10,000
1227/05 13:13DHONY29Full House2,000
1327/05 13:13KENZ81Full House5,000
1427/05 13:13EVHARAHMA1Full House2,000
1527/05 13:13LEOSTAR8Full House500
1627/05 13:13C4A0D13EFull House1,000
1727/05 13:13IJONK_C4Full House10,000
1827/05 13:13HADLEY00Full House10,000
1927/05 13:13SAMSU3791Full House1,000
2027/05 13:13CINRUNKMONFull House2,000
2127/05 13:13SIMAT24Full House1,000
2227/05 13:13NINDYYYFour Of A Kind250,000
2327/05 13:13HOTDOI88Full House5,000
2427/05 13:13NAQQULAFull House5,000
2527/05 13:13TEMPIK01Full House2,000
2627/05 13:13DELIMA56Full House1,000
2727/05 13:13T212GAZCAN99Full House1,000
2827/05 13:13CLIF93Full House5,000
2927/05 13:13HAWU123Full House5,000
3027/05 13:13ROJANA37Full House1,000
3127/05 13:13CACHA_ICHAFull House5,000
3227/05 13:13NGANTRUUFull House5,000
3327/05 13:12ULIL97Full House2,000
3427/05 13:12BUSER12345Full House5,000
3527/05 13:12BULLY83Full House5,000
3627/05 13:12ENTOTNYUFull House5,000
3727/05 13:12KURIL2Full House5,000
3827/05 13:12ERVIIN8898Full House10,000
3927/05 13:12YOYO345Full House10,000
4027/05 13:12ROSE39Full House10,000
4127/05 13:12ICHITAN18Full House10,000
4227/05 13:12ZIDANE234Full House2,000
4327/05 13:12YOKE378Full House2,000
4427/05 13:12B1945PLGFull House5,000
4527/05 13:12TH4TH47Full House5,000
4627/05 13:12FLESH182Full House5,000
4727/05 13:12RANDY0889Full House5,000
4827/05 13:12DED36857Full House20,000
4927/05 13:12GOBANG121Full House10,000
5027/05 13:12DA_N1Full House10,000

Domino Multi Jackpot System

Ikutilah global jackpot yang tersedia di system kami, dengan system jackpot terbaru dan pertama di indonesia, anda dapat membeli jackpot dengan harga 100 rupiah saja dan menangkan hadiahnya hingga puluhan juta rupiah.

Jackpot bukanlah suatu keharusan untuk dibeli, namun kami memberikan suatu fitur tambahan untuk member tercinta dari www.pokerbintang.net.

Terdapat tiga pilihan harga jackpot yang bisa anda beli yaitu :100,500 dan 1000 rupiah.

Hadiah dari Multi jackpot system www.pokerbintang.net

  1. Murni Kecil x 50 harga jackpot yang anda beli.
      (contoh:anda membeli 1000 maka:1000 X 50 = 50.000)
  2. Murni Besar x 50 harga jackpot yang anda beli
      (contoh:anda membeli 1000 maka:1000 X 50 = 50.000)
  3. BALAK x 100 harga jackpot yang anda beli
      (contoh:anda membeli 1000 maka:1000 X 100 = 100.000)
  4. ENAM DEWA x 6666 harga jackpot yang anda beli
      (contoh:anda membeli 1000 maka:1000 X 6666 = 6.666.000)

Demikian adalah penjelasan dari Multi Jackpot www.pokerbintang.net terima kasih dan selamat bermain salam hoki dari kami

Domino Jackpot Winner

TOP ENAM DEWA
No.TanggalNamaPriceWin
127/05 12:29MURNI2110murni enam666,600
227/05 05:24UWOK1213murni enam6,666,000
327/05 02:28ANDHY417murni enam3,333,000
427/05 01:57PON991murni enam6,666,000
527/05 01:52KIJOJOBODOmurni enam6,666,000
TOP BALAK
No.TanggalNamaPriceWin
127/05 13:13KIJOJOBODObalak100,000
227/05 13:08C62D4C30balak100,000
327/05 13:06SUBEJO123balak100,000
427/05 13:06ARKHAN29balak50,000
527/05 13:03FATMELAbalak50,000
LATEST JACKPOT
No.TanggalNamaPriceWin
127/05 13:13POERBAmurni besar50,000
227/05 13:13KIJOJOBODObalak100,000
327/05 13:11IGU15murni besar50,000
427/05 13:10WATUDEA008murni besar25,000
527/05 13:09DEDEKGmurni kecil25,000
627/05 13:09DEMPLON969murni kecil25,000
727/05 13:09TROJANmurni besar50,000
827/05 13:08C62D4C30balak100,000
927/05 13:08F3B408AAmurni besar25,000
1027/05 13:08NUH22murni besar50,000
1127/05 13:08L4120Nmurni besar25,000
1227/05 13:07PASTOK99murni kecil50,000
1327/05 13:06RYANESTAmurni kecil50,000
1427/05 13:06BALON889lucky99200,000
1527/05 13:06SUBEJO123balak100,000
1627/05 13:06ISLAMICmurni kecil5,000
1727/05 13:06ARKHAN29balak50,000
1827/05 13:06PGKJ1lucky9925,000
1927/05 13:05LOVENDAR99murni kecil50,000
2027/05 13:05F4T1M4H111murni besar5,000
2127/05 13:03FATMELAbalak50,000
2227/05 13:02GIOLURUSmurni besar25,000
2327/05 13:02PUKILOYAK3lucky9910,000
2427/05 13:01DEDEKGbalak50,000
2527/05 13:01IGU15murni besar50,000
2627/05 13:01CAEM7281murni kecil50,000
2727/05 13:01PAPIIDDmurni kecil50,000
2827/05 12:59FREDERICO1murni kecil50,000
2927/05 12:59LOTOT9999balak10,000
3027/05 12:59GOKON98murni besar50,000
3127/05 12:58QQMAHYUMIbalak100,000
3227/05 12:58AGA71murni kecil25,000
3327/05 12:58JSJOSANmurni kecil25,000
3427/05 12:58PARTIJO01murni besar50,000
3527/05 12:57RISNA96balak100,000
3627/05 12:57ANGGA3269balak50,000
3727/05 12:57BP883256murni besar25,000
3827/05 12:56QELTVZAB9Mmurni besar50,000
3927/05 12:55C17365DO0XW5LFMmurni besar50,000
4027/05 12:54KAPANKAYAmurni kecil25,000
4127/05 12:54S3T14AB4D1murni kecil25,000
4227/05 12:52SURYANI080balak10,000
4327/05 12:52BASING25murni kecil50,000
4427/05 12:52BUY0NKmurni besar25,000
4527/05 12:52O0JZKLJ9M1murni kecil50,000
4627/05 12:52GQ786MELTZmurni kecil5,000
4727/05 12:51FAZRUL13murni kecil25,000
4827/05 12:51PXPTSRS1NOmurni besar50,000
4927/05 12:50O0JZKLJ9M1murni besar50,000
5027/05 12:50TITANS_86murni kecil25,000

Ceme Multi Jackpot System

Jackpot dilihat dari gabungan kartu pemain dengan kartu bandar. Bandar harus membeli jackpot sebanyak jumlah player yang sedang duduk. Sebagai contoh bila terdapat 3 pemain duduk bermain, dan bandar memutuskan untuk membeli jackpot Rp 1.000, maka pada periode tersebut bandar akan membeli jackpot sebanyak 3xRp1.000 = Rp3.000.

Jackpot bukanlah suatu keharusan untuk dibeli, namun kami memberikan suatu fitur tambahan untuk member tercinta dari www.pokerbintang.net.

Terdapat tiga pilihan harga jackpot yang bisa anda beli yaitu :100,500 dan 1000 rupiah.

Hadiah dari Multi jackpot system www.pokerbintang.net

  1. Murni Kecil x 50 harga jackpot yang anda beli.
      (contoh:anda membeli 1000 maka:1000 X 50 = 50.000)
  2. Murni Besar x 50 harga jackpot yang anda beli
      (contoh:anda membeli 1000 maka:1000 X 50 = 50.000)
  3. BALAK x 200 harga jackpot yang anda beli
      (contoh:anda membeli 1000 maka:1000 X 200 = 200.000)
  4. ENAM DEWA x 6666 harga jackpot yang anda beli
      (contoh:anda membeli 1000 maka:1000 X 6666 = 6.666.000)

Demikian adalah penjelasan dari Multi Jackpot www.pokerbintang.net terima kasih dan selamat bermain salam hoki dari kami

Ceme Jackpot Winner

TOP ENAM DEWA
No.TanggalNamaPriceWin
127/05 13:05BUDEX69murni enam6,666,000
227/05 13:01H1R9S69murni enam3,333,000
327/05 13:01D3W1_89murni enam3,333,000
427/05 12:50SHEMSULmurni enam666,600
527/05 12:43PXWEX315D1murni enam6,666,000
TOP BALAK
No.TanggalNamaPriceWin
127/05 13:12SILENCE90balak200,000
227/05 13:12WIRAA10balak20,000
327/05 13:12BUNGASERAIbalak200,000
427/05 13:12FA580ECBbalak200,000
527/05 13:11ELLPASObalak20,000
LATEST JACKPOT
No.TanggalNamaPriceWin
127/05 13:13JVS22murni besar50,000
227/05 13:13E3B7CA1Bmurni besar25,000
327/05 13:13GLOW303murni besar25,000
427/05 13:13UPI0621murni besar50,000
527/05 13:13NOV1992murni kecil50,000
627/05 13:13AJI636murni kecil50,000
727/05 13:13NDOETTDICKmurni kecil5,000
827/05 13:13F2C982BCmurni besar5,000
927/05 13:13DIUNTUNGmurni kecil50,000
1027/05 13:13KALMAR02murni kecil50,000
1127/05 13:13PHAIUHCO62murni kecil50,000
1227/05 13:12MPEKKUC7murni kecil50,000
1327/05 13:12SILENCE90balak200,000
1427/05 13:12WIRAA10balak20,000
1527/05 13:12BENGNETmurni kecil50,000
1627/05 13:12PARKING740murni kecil5,000
1727/05 13:12AZKA63murni kecil50,000
1827/05 13:12DEWATA001murni kecil50,000
1927/05 13:12ALX16murni kecil50,000
2027/05 13:12WAKCUNI99murni kecil5,000
2127/05 13:12CASTLE5010murni kecil50,000
2227/05 13:12BUNGASERAIbalak200,000
2327/05 13:12FA580ECBbalak200,000
2427/05 13:12MIKEYWAYmurni kecil50,000
2527/05 13:11DEFLANET34murni kecil50,000
2627/05 13:11ELLPASObalak20,000
2727/05 13:11YELLLOWmurni kecil50,000
2827/05 13:11RIJAL7777murni kecil5,000
2927/05 13:11RENOVENmurni kecil5,000
3027/05 13:11BANGRAHMADmurni besar50,000
3127/05 13:11BUKABOLAmurni besar5,000
3227/05 13:11LANEJPmurni besar5,000
3327/05 13:10BUNGASERAImurni kecil50,000
3427/05 13:10PBV172murni besar50,000
3527/05 13:10SAINT85murni kecil50,000
3627/05 13:10LIE56murni kecil5,000
3727/05 13:10BAND1TTTmurni kecil50,000
3827/05 13:10DHER195murni kecil50,000
3927/05 13:10PINKBR4murni kecil5,000
4027/05 13:10ARCHER05murni besar50,000
4127/05 13:10PACE25murni besar25,000
4227/05 13:10JVS22murni kecil25,000
4327/05 13:10BLDJ2700HPmurni besar50,000
4427/05 13:10BP886769murni besar50,000
4527/05 13:10SKYN3T83murni kecil50,000
4627/05 13:10EDON37balak200,000
4727/05 13:10INDRAMALAmurni kecil5,000
4827/05 13:10CUANKI95murni kecil50,000
4927/05 13:10JUNO33murni kecil50,000
5027/05 13:10BEJO461murni kecil25,000